Location: Betra
(48.4113°N, 8.6634°E)
Time: 15:28:56
(UTC+00:00)

Aureole 3 - Pass Details

Date: 08 August 2024
Orbit: 375 x 1118 km, 82.5° (Epoch: 09 September)

Event Time Altitude Azimuth Distance (km) Brightness Sun altitude
Rises 01:52:40 0° 346° (NNW) 2,787 7.5 -18.3°
Reaches altitude 10° 01:55:05 10° 342° (NNW) 1,768 6.4 -18.0°
Maximum altitude 01:58:45 50° 266° (W) 592 3.2 -17.7°
Enters shadow 01:59:06 48° 243° (WSW) 605 3.1 -17.6°
